[[{"header":{"parameterUnit":"m.s-1","parameterCategory":2,"la1":30.2991,"la2":30.254,"lo1":-89.0895,"lo2":-89.0444,"dy":0.0017,"dx":0.0017,"nx":28,"ny":28,"refTime":"2026-02-03T03:00:00:Z","depth":"0","parameterNumber":2,"parameterNumberName":"U-component_of_CURRENTS"},"data":[0,0,0,0,0,0,0,0,0,0,0,0,0,0,0,0,0,0,0,0,0,0,0,0,0,0,0,0,0,0,0,0,0,0,0,0,0,0,0,0,0,0,0,0,0,0,0,0,0,0,0,0,0,0,0,0,0,0,0.156,0.156,0,0.1524,0.1523,0.1521,0.1497,0.1497,0.1498,0.1498,0.1402,0.1399,0.1396,0,0,0,0,0,0,0,0,0,0,0,0,0,0.1493,0.1494,0.156,0.156,0.1561,0.1524,0.1522,0.1521,0.1497,0.1497,0.1498,0.1498,0.1403,0.14,0.1396,0,0,0,0,0,0,0,0,0,0,0,0,0,0.1489,0.1495,0.156,0.1549,0.1549,0.1524,0.1522,0.1521,0.1496,0.1497,0.1498,0.1499,0.1404,0.14,0.1395,0.1352,0,0,0.1381,0.1379,0,0,0,0,0,0,0,0,0.1489,0.149,0.1551,0.155,0.1549,0.1522,0.1464,0.1464,0.1496,0.1508,0.1498,0.1499,0.1441,0.1434,0.1415,0.1347,0.1343,0.1381,0.1378,0.1376,0.1375,0,0,0,0,0,0,0,0.149,0.1491,0.1538,0.1551,0.155,0.1508,0.1508,0.1463,0.1464,0.1507,0.1507,0.1515,0.1439,0.1419,0.1413,0.1342,0.1381,0.1377,0.1374,0.1373,0.1333,0.1335,0,0,0,0,0,0,0.1515,0.1492,0.1539,0.1538,0.1529,0.1509,0.1509,0.1524,0.1465,0.146,0.1514,0.1514,0.1427,0.1418,0.1409,0.1445,0.1376,0.1372,0.1369,0.1332,0.1334,0.1336,0,0,0,0,0,0,0.1514,0.152,0.1541,0.1519,0.152,0.1511,0.1527,0.1523,0.1529,0.1473,0.1465,0.1529,0.1427,0.1415,0.1397,0.1438,0.137,0.1366,0.133,0.1332,0.1335,0.1458,0,0,0,0,0,0,0.1512,0.152,0.1508,0.1522,0.1523,0.1545,0.1527,0.1522,0.1535,0.1534,0.1482,0.1472,0.1427,0.1404,0.1392,0.143,0.1362,0.1328,0.1331,0.1334,0.1452,0.1465,0.1475,0,0,0,0,0,0.151,0.1509,0.1507,0.1512,0.1518,0.1547,0.1542,0.1532,0.1535,0.1539,0.1512,0.1475,0.1417,0.1401,0.1387,0.1425,0.1326,0.133,0.1334,0.1447,0.1462,0.1475,0,0,0,0,0,0,0.1473,0.1508,0.1506,0.1514,0.1537,0.1546,0.154,0.1549,0.1529,0.1529,0.1481,0.1469,0.147,0.1429,0.1413,0.1425,0.1371,0.1372,0.1462,0.1476,0.1487,0.15,0.1359,0,0,0,0,0,0.1462,0.1478,0.1505,0.1517,0.1527,0.1538,0.154,0.1551,0.1551,0.1544,0.1512,0.1484,0.1469,0.146,0.1424,0.1421,0.1444,0.1442,0.1454,0.1464,0.1466,0.1537,0.1557,0.1348,0.1348,0.1348,0,0,0.1459,0.1477,0.1487,0.1511,0.1522,0.155,0.1541,0.157,0.1599,0.1534,0.1541,0.1514,0.1476,0.1478,0.1477,0.1454,0.1548,0.1469,0.1478,0.1474,0.1544,0.1564,0.1582,0.1351,0.135,0.135,0,0,0.1486,0.1476,0.1505,0.1525,0.1558,0.1561,0.1584,0.1606,0.1613,0.1624,0.1596,0.1594,0.1559,0.1546,0.1537,0.1589,0.1603,0.1594,0.1666,0.1736,0.1754,0.177,0.1885,0.191,0.1605,0.1605,0.1606,0,0.1472,0.1513,0.1517,0.1555,0.1571,0.1581,0.1621,0.1631,0.1646,0.1655,0.1644,0.163,0.1592,0.1619,0.1645,0.1616,0.1682,0.1617,0.1754,0.177,0.1784,0.1897,0.1923,0.1612,0.1611,0.161,0.161,0,0.1531,0.1554,0.1578,0.1623,0.164,0.1675,0.1703,0.1715,0.1725,0.1737,0.1765,0.1729,0.1722,0.1728,0.1702,0.1788,0.1814,0.1761,0.1724,0.1814,0.1926,0.1952,0.1621,0.1619,0.1617,0.1615,0,0,0.1509,0.1599,0.1602,0.1629,0.1676,0.1696,0.1745,0.1779,0.1804,0.1826,0.1867,0.1865,0.1856,0.1845,0.1827,0.1892,0.2062,0.1888,0.1889,0.2013,0.2284,0.232,0.2351,0.2054,0.2058,0.206,0.2345,0,0.1543,0.1621,0.1659,0.1718,0.1748,0.1771,0.1807,0.1842,0.186,0.1891,0.1906,0.1919,0.1903,0.1904,0.1978,0.2015,0.2126,0.1993,0.2167,0.2173,0.2202,0.2379,0.2395,0.265,0.2369,0.2373,0.2376,0,0.1574,0.1612,0.1686,0.175,0.1765,0.1797,0.1831,0.1872,0.1924,0.1944,0.1989,0.1992,0.2077,0.2039,0.2226,0.2156,0.2245,0.2293,0.2304,0.2303,0.2254,0.2502,0.2706,0.2704,0.2414,0.2411,0.2408,0,0.154,0.1623,0.1675,0.1698,0.1773,0.1798,0.1826,0.1876,0.1925,0.1972,0.2016,0.2098,0.2155,0.2267,0.2381,0.2322,0.261,0.252,0.2658,0.2662,0.2688,0.2688,0.2911,0.2689,0.2688,0.2688,0.2687,0,0.1551,0.1582,0.1654,0.1681,0.1717,0.177,0.1821,0.1856,0.1935,0.2003,0.2038,0.2119,0.2221,0.2379,0.246,0.2677,0.2688,0.2727,0.275,0.2737,0.2737,0.2737,0.2673,0.2698,0.2696,0.2694,0.2692,0,0.152,0.1578,0.1635,0.1703,0.1716,0.1738,0.1834,0.1871,0.194,0.2037,0.2063,0.22,0.2394,0.2533,0.2735,0.2797,0.292,0.3028,0.3033,0.305,0.3109,0.3049,0.3012,0.2975,0.3221,0.3224,0.3226,0,0.1522,0.1543,0.1635,0.1661,0.1693,0.1734,0.1768,0.1858,0.1917,0.2087,0.2142,0.235,0.2486,0.2828,0.2994,0.3216,0.3074,0.3333,0.3185,0.318,0.313,0.2841,0.279,0.3306,0.3309,0.3311,0.3313,0,0.149,0.1529,0.1579,0.1643,0.1684,0.1732,0.1793,0.1853,0.1968,0.2065,0.2222,0.2341,0.2691,0.2924,0.3222,0.3338,0.3201,0.3383,0.338,0.3239,0.2936,0.289,0.3072,0.3333,0.3331,0.333,0.3328,0.3328,0.1465,0.1487,0.1561,0.1619,0.1663,0.1707,0.1744,0.1828,0.1932,0.2071,0.2225,0.2397,0.2782,0.3192,0.334,0.3591,0.3363,0.3554,0.3502,0.3224,0.3111,0.3358,0.3613,0.3612,0.3612,0.3612,0.3611,0,0.1409,0.1451,0.1519,0.1595,0.1626,0.1664,0.1741,0.1779,0.1871,0.2046,0.218,0.2535,0.2886,0.3223,0.3625,0.3691,0.3516,0.3672,0.3308,0.3271,0.3567,0.3497,0.3734,0.3734,0.3734,0.3734,0.3734,0.3734,0.1388,0.1424,0.1475,0.1525,0.1569,0.16,0.1632,0.17,0.1823,0.2015,0.2191,0.2349,0.2783,0.333,0.3662,0.3685,0.3485,0.3382,0.3312,0.3594,0.3578,0.3561,0.3486,0.3717,0.3717,0.2922,0.2916,0.2913]},{"header":{"parameterUnit":"m.s-1","parameterCategory":2,"la1":30.2991,"la2":30.254,"lo1":-89.0895,"lo2":-89.0444,"dy":0.0017,"dx":0.0017,"nx":28,"ny":28,"refTime":"2026-02-03T03:00:00:Z","depth":"0","parameterNumber":3,"parameterNumberName":"V-component_of_CURRENTS"},"data":[0,0,0,0,0,0,0,0,0,0,0,0,0,0,0,0,0,0,0,0,0,0,0,0,0,0,0,0,0,0,0,0,0,0,0,0,0,0,0,0,0,0,0,0,0,0,0,0,0,0,0,0,0,0,0,0,0,0,0.003,0.003,0,0.0023,0.0022,0.0022,0.0029,0.0029,0.0029,0.0029,-0.0065,-0.0068,-0.007,0,0,0,0,0,0,0,0,0,0,0,0,0,0.0038,0.0038,0.003,0.003,0.003,0.0023,0.0022,0.0022,0.0029,0.0029,0.0029,0.0029,-0.0064,-0.0067,-0.0071,0,0,0,0,0,0,0,0,0,0,0,0,0,0.0033,0.0038,0.003,0.0032,0.0032,0.0023,0.0022,0.0022,0.0029,0.0029,0.0029,0.0029,-0.0063,-0.0067,-0.0071,-0.0102,0,0,-0.0083,-0.0085,0,0,0,0,0,0,0,0,0.0034,0.0033,0.0032,0.0032,0.0032,0.0026,-0.0009,-0.0024,0.0028,0.0031,0.0029,0.003,-0.0043,-0.0049,-0.0049,-0.0106,-0.011,-0.0084,-0.0086,-0.0088,-0.0089,0,0,0,0,0,0,0,0.0034,0.0033,0.0028,0.0031,0.0031,0.0028,0.0028,-0.0012,-0.0009,0.003,0.0031,0.0028,-0.0044,-0.0045,-0.0051,-0.0112,-0.0084,-0.0087,-0.009,-0.0091,-0.017,-0.017,0,0,0,0,0,0,0.0034,0.0034,0.0028,0.0028,0.0032,0.0028,0.0028,0.0028,-0.0007,-0.0011,0.0028,0.0029,-0.0038,-0.0046,-0.0055,-0.0066,-0.0088,-0.0092,-0.0094,-0.017,-0.017,-0.0169,0,0,0,0,0,0,0.0034,0.0033,0.0029,0.003,0.0029,0.0027,0.0028,0.0028,0.0028,-0.0007,-0.0013,0.0028,-0.0038,-0.0049,-0.0075,-0.0071,-0.0093,-0.0097,-0.0171,-0.017,-0.017,-0.0107,0,0,0,0,0,0,0.0034,0.0034,0.0035,0.003,0.0029,0.0026,0.0027,0.0028,0.0026,0.0027,-0.001,-0.0018,-0.0039,-0.0068,-0.0078,-0.0077,-0.01,-0.0171,-0.017,-0.017,-0.011,-0.0105,-0.01,0,0,0,0,0,0.0035,0.0029,0.0035,0.0034,0.003,0.0026,0.0026,0.0026,0.0026,0.0027,0.0012,-0.0017,-0.0072,-0.0071,-0.0083,-0.0083,-0.0171,-0.0171,-0.017,-0.0112,-0.0106,-0.0101,0,0,0,0,0,0,0.004,0.0029,0.0035,0.003,0.0032,0.0027,0.0028,0.0025,0.0015,0.0012,-0.0016,-0.0025,-0.0042,-0.0075,-0.0073,-0.0103,-0.0126,-0.0127,-0.0077,-0.0072,-0.0068,-0.0049,-0.0104,0,0,0,0,0,0.0041,0.0026,0.0031,0.0025,0.0032,0.0031,0.0029,0.0025,0.0015,0.0012,-0.0009,-0.0034,-0.005,-0.0069,-0.0092,-0.0119,-0.0125,-0.0125,-0.0121,-0.0116,-0.011,-0.0116,-0.0111,-0.0167,-0.0167,-0.0167,0,0,0.0044,0.0031,0.0028,0.0023,0.0029,0.0045,0.0031,0.0026,0.0035,-0.0001,0.0002,-0.002,-0.0051,-0.0064,-0.0077,-0.0092,-0.0099,-0.0115,-0.0111,-0.0107,-0.0115,-0.0109,-0.0104,-0.0166,-0.0167,-0.0167,0,0,0.0052,0.0036,0.0044,0.0042,0.0041,0.004,0.004,0.0039,0.0038,0.0029,0.0019,0.0002,-0.0036,-0.0045,-0.0057,-0.0048,-0.0069,-0.006,-0.003,-0.0036,-0.0031,-0.0027,-0.0003,0.0002,-0.0064,-0.0064,-0.0064,0,0.0063,0.0069,0.0046,0.0059,0.0063,0.0044,0.007,0.0062,0.0049,0.005,0.0034,0.0009,-0.0023,-0.0023,-0.0012,-0.0037,-0.0032,-0.0047,-0.0029,-0.0025,-0.0022,0.0001,0.0007,-0.0061,-0.0061,-0.0061,-0.0062,0,0.0091,0.0095,0.0097,0.0109,0.011,0.0113,0.0111,0.0107,0.0096,0.009,0.0083,0.005,0.0035,0.0023,0.0007,0.0016,0.0018,-0.0015,-0.0039,-0.0012,0.001,0.0015,-0.0056,-0.0057,-0.0058,-0.0059,0,0,0.0115,0.0123,0.0122,0.0142,0.0132,0.0139,0.0147,0.0158,0.0172,0.0142,0.0163,0.0128,0.0105,0.0091,0.0066,0.0058,0.0088,0.0036,0.0034,0.0068,0.0105,0.0113,0.0118,0.0062,0.0062,0.0062,0.0121,0,0.0154,0.0187,0.0177,0.0211,0.0235,0.0215,0.0231,0.0224,0.0212,0.022,0.018,0.0179,0.0132,0.0128,0.0113,0.0097,0.01,0.0077,0.0066,0.0067,0.0076,0.0123,0.0165,0.0221,0.0126,0.0126,0.0127,0,0.0199,0.0203,0.0248,0.027,0.0283,0.0297,0.0314,0.0323,0.0315,0.0305,0.0283,0.0254,0.0242,0.0193,0.0175,0.0166,0.0144,0.0126,0.0127,0.0114,0.0082,0.0172,0.0232,0.0169,0.0134,0.0133,0.0133,0,0.0234,0.026,0.0294,0.0297,0.0316,0.0333,0.0347,0.0346,0.037,0.0354,0.0369,0.0332,0.0334,0.0286,0.0244,0.0211,0.0241,0.0181,0.0173,0.0174,0.0197,0.0199,0.02,0.0174,0.0174,0.0174,0.0173,0,0.0276,0.0296,0.031,0.0326,0.0364,0.0366,0.0411,0.0413,0.0437,0.0476,0.0413,0.0444,0.0358,0.0357,0.0292,0.0268,0.0274,0.02,0.019,0.0222,0.0225,0.0158,0.013,0.0176,0.0175,0.0175,0.0174,0,0.0303,0.0314,0.0351,0.0376,0.0384,0.0407,0.046,0.0494,0.0504,0.0556,0.0558,0.0552,0.0543,0.0476,0.0428,0.035,0.0264,0.0296,0.0358,0.0353,0.0246,0.022,0.0099,0.0061,0.0282,0.0282,0.0283,0,0.0331,0.0345,0.0385,0.0402,0.0411,0.0445,0.0477,0.0514,0.0558,0.0627,0.0664,0.0681,0.0701,0.0647,0.0526,0.0438,0.0326,0.0399,0.0319,0.0268,0.0232,0.0084,0.005,0.039,0.0391,0.0392,0.0393,0,0.0357,0.0365,0.039,0.0432,0.0465,0.0511,0.0565,0.0619,0.0674,0.0729,0.0818,0.0849,0.0812,0.0766,0.0646,0.0551,0.0328,0.0416,0.0344,0.0311,0.017,0.0121,0.0339,0.0402,0.0401,0.0401,0.04,0.04,0.038,0.0393,0.0431,0.0465,0.0504,0.057,0.0625,0.0697,0.0788,0.0897,0.0937,0.1026,0.1004,0.0845,0.0673,0.046,0.038,0.0384,0.0361,0.0216,0.016,0.0411,0.0461,0.0461,0.046,0.046,0.0459,0,0.0407,0.0419,0.0462,0.0515,0.0563,0.0583,0.0679,0.0749,0.0857,0.0988,0.1079,0.1237,0.1115,0.0954,0.073,0.0496,0.0278,0.0359,0.0183,0.0154,0.0389,0.0377,0.0433,0.0433,0.0433,0.0433,0.0433,0.0433,0.0424,0.0456,0.0474,0.0552,0.0591,0.0672,0.0732,0.084,0.0957,0.1176,0.1337,0.147,0.1584,0.105,0.0662,0.0493,0.0243,0.0128,0.0032,0.0242,0.0241,0.0241,0.022,0.0243,0.0243,-0.0239,-0.0243,-0.0245]}],[{"header":{"parameterUnit":"m.s-1","parameterCategory":2,"la1":30.2991,"la2":30.254,"lo1":-89.0895,"lo2":-89.0444,"dy":0.0017,"dx":0.0017,"nx":28,"ny":28,"refTime":"2026-02-03T03:00:00:Z","depth":"2","parameterNumber":2,"parameterNumberName":"U-component_of_CURRENTS"},"data":[0,0,0,0,0,0,0,0,0,0,0,0,0,0,0,0,0,0,0,0,0,0,0,0,0,0,0,0,0,0,0,0,0,0,0,0,0,0,0,0,0,0,0,0,0,0,0,0,0,0,0,0,0,0,0,0,0,0,-0.1423,-0.1423,0,-0.142,-0.142,-0.142,-0.1453,-0.1454,-0.1454,-0.1455,-0.1383,-0.1381,-0.1378,0,0,0,0,0,0,0,0,0,0,0,0,0,-0.1556,-0.1553,-0.1423,-0.1423,-0.1422,-0.142,-0.142,-0.1421,-0.1453,-0.1454,-0.1455,-0.1455,-0.1384,-0.1381,-0.1378,0,0,0,0,0,0,0,0,0,0,0,0,0,-0.1523,-0.1552,-0.1423,-0.1436,-0.1437,-0.142,-0.142,-0.1421,-0.1453,-0.1454,-0.1455,-0.1456,-0.1385,-0.1382,-0.1378,-0.1336,0,0,-0.1366,-0.1365,0,0,0,0,0,0,0,0,-0.1525,-0.1518,-0.1434,-0.1435,-0.1436,-0.1435,-0.1441,-0.1388,-0.1453,-0.145,-0.1455,-0.1456,-0.1392,-0.1387,-0.139,-0.1333,-0.133,-0.1366,-0.1364,-0.1362,-0.1361,0,0,0,0,0,0,0,-0.1527,-0.1519,-0.1425,-0.1434,-0.1435,-0.1476,-0.1472,-0.1432,-0.1417,-0.145,-0.1452,-0.1447,-0.1392,-0.1394,-0.1388,-0.1329,-0.1366,-0.1363,-0.1361,-0.1359,-0.1217,-0.1216,0,0,0,0,0,0,-0.1514,-0.152,-0.1425,-0.1424,-0.148,-0.1472,-0.1468,-0.1437,-0.1419,-0.1417,-0.1446,-0.1448,-0.14,-0.1393,-0.1386,-0.1325,-0.1362,-0.1359,-0.1357,-0.1219,-0.1217,-0.1215,0,0,0,0,0,0,-0.1516,-0.1504,-0.1425,-0.1472,-0.1465,-0.1468,-0.1434,-0.1436,-0.1449,-0.1415,-0.1413,-0.1456,-0.14,-0.1391,-0.1346,-0.1323,-0.1357,-0.1354,-0.1221,-0.1218,-0.1216,-0.1209,0,0,0,0,0,0,-0.152,-0.1505,-0.1491,-0.147,-0.1461,-0.1414,-0.1433,-0.1436,-0.1442,-0.1445,-0.1423,-0.1417,-0.14,-0.1351,-0.1342,-0.1318,-0.1351,-0.1223,-0.122,-0.1217,-0.1211,-0.1207,-0.1203,0,0,0,0,0,-0.1524,-0.149,-0.149,-0.1479,-0.1436,-0.1413,-0.1413,-0.1423,-0.1441,-0.144,-0.142,-0.1418,-0.1327,-0.1347,-0.1336,-0.1311,-0.1224,-0.1221,-0.1217,-0.1213,-0.1208,-0.1203,0,0,0,0,0,0,-0.1545,-0.1489,-0.1489,-0.1441,-0.1431,-0.1418,-0.1417,-0.1425,-0.1413,-0.1418,-0.1397,-0.1388,-0.1337,-0.1322,-0.1345,-0.126,-0.1275,-0.1269,-0.1276,-0.127,-0.1266,-0.126,-0.1348,0,0,0,0,0,-0.154,-0.1499,-0.1467,-0.1436,-0.1427,-0.1427,-0.1425,-0.1429,-0.141,-0.1409,-0.1384,-0.1353,-0.1312,-0.1293,-0.1253,-0.1207,-0.1191,-0.1183,-0.1179,-0.1176,-0.1162,-0.1135,-0.1128,-0.1204,-0.1204,-0.1204,0,0,-0.1542,-0.1507,-0.1487,-0.1439,-0.1435,-0.1411,-0.1429,-0.142,-0.1401,-0.1397,-0.1359,-0.1334,-0.1295,-0.1243,-0.1219,-0.123,-0.1142,-0.1172,-0.1169,-0.1157,-0.113,-0.1123,-0.1117,-0.1202,-0.1202,-0.1203,0,0,-0.1525,-0.1493,-0.1458,-0.144,-0.1421,-0.1412,-0.1409,-0.1389,-0.1384,-0.1342,-0.1331,-0.1293,-0.1234,-0.1201,-0.1177,-0.1124,-0.1119,-0.1115,-0.1092,-0.1066,-0.106,-0.1054,-0.1016,-0.1007,-0.1117,-0.1117,-0.1117,0,-0.1537,-0.1476,-0.1452,-0.1418,-0.1404,-0.1409,-0.1384,-0.1368,-0.1337,-0.1323,-0.1325,-0.1242,-0.1209,-0.1151,-0.1126,-0.1114,-0.1099,-0.112,-0.1063,-0.1057,-0.1051,-0.1014,-0.1004,-0.1116,-0.1116,-0.1116,-0.1116,0,-0.1487,-0.1452,-0.1433,-0.1382,-0.1367,-0.1347,-0.1319,-0.1302,-0.1296,-0.128,-0.1227,-0.1185,-0.1136,-0.112,-0.11,-0.1042,-0.1043,-0.1061,-0.1082,-0.1044,-0.1006,-0.0996,-0.1115,-0.1115,-0.1116,-0.1116,0,0,-0.1476,-0.141,-0.1405,-0.1386,-0.1348,-0.1329,-0.1292,-0.1258,-0.1236,-0.1206,-0.1169,-0.1098,-0.1091,-0.1061,-0.1042,-0.1016,-0.0953,-0.1018,-0.1017,-0.0991,-0.0887,-0.0744,-0.072,-0.0973,-0.0971,-0.097,-0.0874,0,-0.1452,-0.1389,-0.1359,-0.1317,-0.1288,-0.1276,-0.1236,-0.121,-0.1187,-0.1147,-0.112,-0.1068,-0.1065,-0.1038,-0.101,-0.0969,-0.0928,-0.0977,-0.0917,-0.0914,-0.0802,-0.0703,-0.0704,-0.0605,-0.0864,-0.0862,-0.0861,0,-0.1404,-0.1372,-0.1323,-0.128,-0.1267,-0.1238,-0.1195,-0.116,-0.1113,-0.1093,-0.106,-0.1039,-0.0977,-0.0986,-0.0904,-0.094,-0.0896,-0.0874,-0.087,-0.073,-0.0751,-0.0684,-0.0578,-0.0845,-0.0846,-0.0847,-0.0848,0,-0.1399,-0.1344,-0.1308,-0.1291,-0.124,-0.1217,-0.1189,-0.1144,-0.1106,-0.1056,-0.1022,-0.0982,-0.0926,-0.0899,-0.0822,-0.0868,-0.073,-0.0796,-0.0627,-0.0618,-0.0597,-0.0586,-0.0721,-0.0721,-0.0721,-0.0722,-0.0722,0,-0.1367,-0.1339,-0.1302,-0.1279,-0.1234,-0.1205,-0.115,-0.1119,-0.1063,-0.1001,-0.0986,-0.0923,-0.0898,-0.082,-0.0796,-0.0643,-0.0702,-0.0579,-0.0565,-0.059,-0.058,-0.0782,-0.079,-0.0718,-0.0719,-0.0719,-0.072,0,-0.1348,-0.1327,-0.1284,-0.1241,-0.1225,-0.1188,-0.1118,-0.1074,-0.1028,-0.0945,-0.0922,-0.0852,-0.0727,-0.0678,-0.0594,-0.0558,-0.0472,-0.0404,-0.0413,-0.0397,-0.0398,-0.0408,-0.0229,-0.0223,-0.0218,-0.0213,-0.021,0,-0.1323,-0.13,-0.1258,-0.1231,-0.1205,-0.1151,-0.1106,-0.1056,-0.1008,-0.0891,-0.0847,-0.0702,-0.0572,-0.038,-0.0278,-0.016,-0.0267,-0.0116,-0.0184,-0.0334,-0.0339,-0.0357,-0.0373,-0.0173,-0.0169,-0.0166,-0.0163,0,-0.1278,-0.1269,-0.1234,-0.1195,-0.1149,-0.1096,-0.1034,-0.099,-0.0912,-0.0823,-0.068,-0.0565,-0.0326,-0.015,0.0035,0.0052,-0.0141,-0.0043,-0.0195,-0.027,-0.0264,-0.0276,-0.0296,-0.0136,-0.0139,-0.0141,-0.0143,-0.0144,-0.1238,-0.121,-0.1179,-0.1132,-0.1094,-0.1037,-0.0966,-0.0895,-0.0787,-0.0604,-0.0541,-0.0308,-0.021,0.0137,0.019,0.0221,0.0191,0.011,0.0093,0.0074,0.0091,0.0109,0.0309,0.0309,0.0309,0.0309,0.0309,0,-0.117,-0.1154,-0.1114,-0.1056,-0.1,-0.1005,-0.091,-0.0809,-0.0655,-0.0462,-0.0282,-0.008,0.0109,0.02,0.0347,0.0393,0.0274,0.0318,0.0144,0.012,0.0098,0.0106,0.0334,0.0334,0.0334,0.0334,0,0,-0.1131,-0.1076,-0.1056,-0.0966,-0.0938,-0.0843,-0.0777,-0.0622,-0.0466,-0.0205,-0.0018,0.013,0.0219,0.0294,0.0314,0.0364,0.0207,0.0324,0.0305,0.0076,0.0053,-0.0009,-0.0017,0,0,0,0,0]},{"header":{"parameterUnit":"m.s-1","parameterCategory":2,"la1":30.2991,"la2":30.254,"lo1":-89.0895,"lo2":-89.0444,"dy":0.0017,"dx":0.0017,"nx":28,"ny":28,"refTime":"2026-02-03T03:00:00:Z","depth":"2","parameterNumber":3,"parameterNumberName":"V-component_of_CURRENTS"},"data":[0,0,0,0,0,0,0,0,0,0,0,0,0,0,0,0,0,0,0,0,0,0,0,0,0,0,0,0,0,0,0,0,0,0,0,0,0,0,0,0,0,0,0,0,0,0,0,0,0,0,0,0,0,0,0,0,0,0,-0.0077,-0.0076,0,-0.0001,0.0001,0.0002,0.011,0.0111,0.0113,0.0114,0.0267,0.027,0.0272,0,0,0,0,0,0,0,0,0,0,0,0,0,-0.0059,-0.006,-0.0077,-0.0076,-0.0076,-0.0001,0.0001,0.0002,0.0109,0.0111,0.0113,0.0115,0.0266,0.0269,0.0272,0,0,0,0,0,0,0,0,0,0,0,0,0,-0.003,-0.0061,-0.0077,-0.0016,-0.001,-0.0001,0.0001,0.0002,0.0109,0.0111,0.0114,0.0116,0.0265,0.0269,0.0273,0.0252,0,0,0.0285,0.0287,0,0,0,0,0,0,0,0,-0.0032,-0.0031,-0.0025,-0.002,-0.0013,0.0044,0.0063,0.0088,0.0108,0.0068,0.0114,0.0117,0.0196,0.0205,0.0219,0.0259,0.0265,0.0285,0.0288,0.029,0.0291,0,0,0,0,0,0,0,-0.0034,-0.0033,-0.0043,-0.0025,-0.0018,0.0032,0.0038,0.0068,0.0122,0.0071,0.0079,0.0081,0.02,0.0214,0.0223,0.0268,0.0285,0.0289,0.0291,0.0293,0.0382,0.0382,0,0,0,0,0,0,-0.0058,-0.0036,-0.0046,-0.0041,-0.0021,0.0029,0.0037,0.0026,0.012,0.0135,0.0079,0.0085,0.0207,0.0218,0.0229,0.0282,0.029,0.0293,0.0296,0.0382,0.0382,0.0382,0,0,0,0,0,0,-0.0058,-0.006,-0.0049,-0.0038,-0.0034,0.0025,0.0014,0.0027,0.0066,0.0124,0.0142,0.0108,0.0209,0.0223,0.0267,0.0286,0.0295,0.0299,0.0382,0.0382,0.0382,0.0341,0,0,0,0,0,0,-0.0058,-0.0061,-0.0063,-0.0041,-0.0035,-0.0038,0.0012,0.0026,0.0061,0.0071,0.0154,0.0169,0.0212,0.0261,0.0271,0.0292,0.0302,0.0382,0.0382,0.0382,0.0342,0.0339,0.0337,0,0,0,0,0,-0.0058,-0.008,-0.0064,-0.0064,-0.0045,-0.0039,-0.0032,0.0022,0.006,0.0069,0.0125,0.0168,0.0269,0.0263,0.0275,0.0298,0.0382,0.0382,0.0382,0.0343,0.034,0.0337,0,0,0,0,0,0,-0.0064,-0.0071,-0.0052,-0.0072,-0.0053,-0.0022,-0.0011,0.0024,0.0074,0.0097,0.0159,0.0177,0.022,0.0258,0.025,0.0322,0.0335,0.0338,0.0302,0.03,0.0297,0.0292,0.0305,0,0,0,0,0,-0.0074,-0.0093,-0.0081,-0.0092,-0.0088,-0.0046,-0.0031,0.0004,0.0042,0.0069,0.0126,0.0184,0.0222,0.026,0.0294,0.0332,0.0326,0.0356,0.0354,0.0351,0.0355,0.0357,0.0355,0.0381,0.0381,0.0381,0,0,-0.0078,-0.0084,-0.0092,-0.0094,-0.0074,-0.0067,-0.0029,-0.001,0.0017,0.0075,0.0134,0.017,0.0225,0.0266,0.0291,0.0308,0.0331,0.0351,0.0349,0.0354,0.0357,0.0354,0.0352,0.0381,0.0381,0.0381,0,0,-0.0101,-0.0105,-0.0124,-0.0116,-0.0096,-0.0074,-0.0069,-0.003,0.0012,0.0054,0.0102,0.0147,0.0216,0.0259,0.0289,0.0291,0.0304,0.0309,0.0311,0.0313,0.031,0.0308,0.025,0.0243,0.0323,0.0323,0.0323,0,-0.01,-0.0122,-0.0123,-0.0132,-0.0118,-0.008,-0.0074,-0.0042,0.0016,0.0047,0.0073,0.0164,0.0215,0.0261,0.0271,0.0288,0.0267,0.0318,0.0308,0.0306,0.0305,0.0246,0.0239,0.0321,0.0322,0.0322,0.0322,0,-0.0135,-0.0137,-0.0149,-0.0147,-0.0136,-0.0128,-0.0093,-0.0059,-0.0006,0.0034,0.009,0.0144,0.0205,0.0226,0.0258,0.0281,0.0256,0.0289,0.0312,0.03,0.0238,0.0231,0.0319,0.0319,0.032,0.032,0,0,-0.0168,-0.0171,-0.017,-0.0154,-0.0137,-0.0127,-0.0097,-0.0055,-0.0021,0.0036,0.0073,0.0146,0.0178,0.0212,0.0251,0.0267,0.0231,0.0279,0.028,0.0213,0.0182,0.015,0.0139,0.0261,0.0261,0.0261,0.0124,0,-0.0181,-0.0193,-0.0191,-0.0173,-0.0168,-0.013,-0.0104,-0.0058,-0.0012,0.0027,0.0083,0.0131,0.0171,0.0203,0.022,0.0231,0.022,0.0261,0.0213,0.021,0.0178,0.0135,0.0144,0.0024,0.0118,0.0117,0.0116,0,-0.0213,-0.0211,-0.0204,-0.0167,-0.016,-0.0137,-0.0082,-0.0052,-0.0003,0.0031,0.0073,0.0105,0.0137,0.0173,0.0169,0.019,0.0183,0.0184,0.0179,0.0167,0.0168,0.0063,0.0009,0.0106,0.0106,0.0107,0.0108,0,-0.0228,-0.0214,-0.02,-0.0192,-0.0155,-0.0123,-0.0086,-0.0038,-0.0003,0.0035,0.0049,0.0079,0.0099,0.0101,0.0109,0.0137,0.0074,0.0114,0.0062,0.0057,0.0066,0.0062,0.0099,0.0099,0.0099,0.0099,0.01,0,-0.0251,-0.0235,-0.0195,-0.0188,-0.0146,-0.0115,-0.0065,-0.0031,0.0008,0.0034,0.006,0.006,0.0089,0.0063,0.0067,0.0024,0.0036,0.004,0.0028,0.0046,0.0043,0.0136,0.0143,0.0094,0.0095,0.0096,0.0097,0,-0.0273,-0.0255,-0.0231,-0.018,-0.0154,-0.0117,-0.0045,-0.0018,0.0018,0.004,0.0051,0.004,-0.0001,-0.001,-0.0032,-0.0033,-0.0063,-0.0079,-0.0095,-0.0104,-0.0085,-0.0079,-0.0167,-0.017,-0.0171,-0.0173,-0.0174,0,-0.0288,-0.028,-0.0224,-0.0197,-0.0165,-0.0104,-0.0068,-0.0012,0.0002,0.0023,0.0012,-0.0018,-0.0058,-0.0144,-0.015,-0.0201,-0.0147,-0.0215,-0.0134,-0.0106,-0.0108,-0.0099,-0.0091,-0.017,-0.0171,-0.0172,-0.0172,0,-0.0307,-0.0283,-0.0263,-0.0209,-0.0161,-0.0122,-0.0069,-0.0063,-0.0017,-0.0009,-0.0041,-0.0071,-0.0146,-0.0195,-0.0251,-0.0269,-0.0203,-0.0236,-0.02,-0.009,-0.0114,-0.0114,-0.0105,-0.018,-0.018,-0.0179,-0.0179,-0.0178,-0.0313,-0.0304,-0.0269,-0.0218,-0.0168,-0.0145,-0.0124,-0.0096,-0.0084,-0.0061,-0.0103,-0.0117,-0.0181,-0.0249,-0.0292,-0.0299,-0.029,-0.0265,-0.026,-0.0254,-0.0216,-0.0239,-0.0327,-0.0327,-0.0327,-0.0327,-0.0327,0,-0.0325,-0.0306,-0.0272,-0.023,-0.0203,-0.0145,-0.0128,-0.0125,-0.0123,-0.0089,-0.0099,-0.0156,-0.0216,-0.0244,-0.0261,-0.0307,-0.0283,-0.0309,-0.0247,-0.024,-0.0234,-0.0191,-0.0298,-0.0298,-0.0298,-0.0298,0,0,-0.0329,-0.0319,-0.0307,-0.0272,-0.0222,-0.0183,-0.017,-0.0161,-0.0145,-0.0122,-0.0081,-0.0122,-0.0187,-0.0197,-0.0263,-0.0254,-0.0234,-0.0265,-0.0289,-0.0204,-0.0196,-0.0218,-0.0146,0,0,0,0,0]}],[{"header":{"parameterUnit":"m.s-1","parameterCategory":2,"la1":30.2991,"la2":30.254,"lo1":-89.0895,"lo2":-89.0444,"dy":0.0017,"dx":0.0017,"nx":28,"ny":28,"refTime":"2026-02-03T03:00:00:Z","depth":"4","parameterNumber":2,"parameterNumberName":"U-component_of_CURRENTS"},"data":[0,0,0,0,0,0,0,0,0,0,0,0,0,0,0,0,0,0,0,0,0,0,0,0,0,0,0,0,0,0,0,0,0,0,0,0,0,0,0,0,0,0,0,0,0,0,0,0,0,0,0,0,0,0,0,0,0,0,-0.0398,-0.0399,0,-0.0431,-0.0431,-0.0431,-0.0422,-0.0422,-0.0422,-0.0422,-0.0431,-0.0431,-0.0431,0,0,0,0,0,0,0,0,0,0,0,0,0,-0.0385,-0.0384,-0.0398,-0.0399,-0.04,-0.0431,-0.0431,-0.0431,-0.0422,-0.0422,-0.0422,-0.0422,-0.043,-0.0431,-0.0431,0,0,0,0,0,0,0,0,0,0,0,0,0,-0.0397,-0.0384,-0.0398,-0.0403,-0.0404,-0.0431,-0.0431,-0.0431,-0.0422,-0.0422,-0.0422,-0.0421,-0.043,-0.0431,-0.0431,-0.0442,0,0,-0.0434,-0.0434,0,0,0,0,0,0,0,0,-0.0396,-0.0396,-0.0401,-0.0403,-0.0404,-0.0426,-0.043,-0.0435,-0.0423,-0.041,-0.0422,-0.0421,-0.043,-0.0431,-0.0431,-0.0443,-0.0443,-0.0434,-0.0434,-0.0434,-0.0434,0,0,0,0,0,0,0,-0.0395,-0.0395,-0.0406,-0.0402,-0.0404,-0.0423,-0.0423,-0.0431,-0.0418,-0.0411,-0.0412,-0.0423,-0.043,-0.0431,-0.0432,-0.0443,-0.0434,-0.0434,-0.0435,-0.0435,-0.049,-0.0491,0,0,0,0,0,0,-0.0398,-0.0394,-0.0405,-0.0408,-0.0404,-0.0424,-0.0424,-0.0416,-0.0418,-0.042,-0.0424,-0.0423,-0.043,-0.0431,-0.0432,-0.0457,-0.0434,-0.0435,-0.0435,-0.0489,-0.049,-0.0492,0,0,0,0,0,0,-0.0397,-0.0398,-0.0404,-0.0407,-0.041,-0.0424,-0.0415,-0.0417,-0.0424,-0.0429,-0.0429,-0.0431,-0.043,-0.0431,-0.0451,-0.0456,-0.0435,-0.0436,-0.0488,-0.049,-0.0491,-0.0499,0,0,0,0,0,0,-0.0396,-0.0396,-0.0394,-0.0406,-0.041,-0.0419,-0.0416,-0.0418,-0.0434,-0.0433,-0.0435,-0.0435,-0.0429,-0.045,-0.0451,-0.0457,-0.0436,-0.0487,-0.0489,-0.0491,-0.0497,-0.05,-0.0503,0,0,0,0,0,-0.0395,-0.0397,-0.0393,-0.0395,-0.0404,-0.042,-0.0422,-0.043,-0.0434,-0.0435,-0.0447,-0.0435,-0.0464,-0.0451,-0.0453,-0.0459,-0.0486,-0.0488,-0.049,-0.0496,-0.05,-0.0503,0,0,0,0,0,0,-0.0396,-0.0397,-0.0393,-0.0395,-0.0405,-0.042,-0.0431,-0.0437,-0.0447,-0.045,-0.045,-0.0451,-0.047,-0.047,-0.0457,-0.0483,-0.0473,-0.0475,-0.0476,-0.048,-0.0483,-0.0467,-0.0437,0,0,0,0,0,-0.0394,-0.0387,-0.0398,-0.0399,-0.0408,-0.042,-0.0431,-0.0434,-0.0448,-0.0452,-0.0462,-0.0473,-0.0481,-0.0485,-0.0494,-0.0509,-0.0499,-0.0516,-0.0519,-0.0521,-0.0512,-0.0516,-0.0518,-0.05,-0.05,-0.0499,0,0,-0.0396,-0.0397,-0.0393,-0.0399,-0.0409,-0.0421,-0.0424,-0.0442,-0.0451,-0.0453,-0.0476,-0.0485,-0.0489,-0.0504,-0.0513,-0.0505,-0.0521,-0.0524,-0.0526,-0.0515,-0.0519,-0.052,-0.0521,-0.0501,-0.0501,-0.0501,0,0,-0.0402,-0.0397,-0.0396,-0.0405,-0.0422,-0.043,-0.0438,-0.0459,-0.0466,-0.0489,-0.0494,-0.0508,-0.0528,-0.0528,-0.0529,-0.0557,-0.0539,-0.0566,-0.0563,-0.0568,-0.0569,-0.057,-0.0553,-0.0552,-0.0565,-0.0565,-0.0565,0,-0.0408,-0.04,-0.0402,-0.041,-0.042,-0.0435,-0.0444,-0.0457,-0.0483,-0.049,-0.0497,-0.0526,-0.0534,-0.054,-0.0551,-0.0561,-0.0555,-0.0546,-0.057,-0.0571,-0.0571,-0.0554,-0.0552,-0.0565,-0.0565,-0.0565,-0.0565,0,-0.0408,-0.041,-0.0417,-0.0421,-0.0432,-0.0445,-0.0463,-0.0479,-0.0496,-0.0505,-0.0524,-0.0539,-0.0548,-0.056,-0.0562,-0.0572,-0.0564,-0.0573,-0.0554,-0.0573,-0.0554,-0.0552,-0.0566,-0.0566,-0.0566,-0.0566,0,0,-0.04,-0.0413,-0.0415,-0.0417,-0.0438,-0.0445,-0.0466,-0.048,-0.0489,-0.0515,-0.0522,-0.0545,-0.055,-0.0553,-0.0561,-0.0569,-0.057,-0.0573,-0.0573,-0.0544,-0.0565,-0.0472,-0.0462,-0.0586,-0.0586,-0.0586,-0.0548,0,-0.0401,-0.041,-0.0416,-0.0428,-0.0436,-0.0452,-0.0466,-0.0481,-0.0497,-0.0511,-0.0523,-0.0533,-0.0547,-0.055,-0.0561,-0.0573,-0.0568,-0.0579,-0.0562,-0.0561,-0.0466,-0.0458,-0.0586,-0.0547,-0.0546,-0.0546,-0.0546,0,-0.0394,-0.0401,-0.0412,-0.0422,-0.0427,-0.0436,-0.0451,-0.0465,-0.0485,-0.0496,-0.0507,-0.0516,-0.0528,-0.0539,-0.0551,-0.0558,-0.0557,-0.0563,-0.0562,-0.0467,-0.0465,-0.0528,-0.0543,-0.0543,-0.0543,-0.0544,-0.0544,0,-0.0378,-0.0395,-0.04,-0.0406,-0.0425,-0.043,-0.0439,-0.0459,-0.0464,-0.0482,-0.0481,-0.05,-0.0502,-0.0518,-0.0529,-0.0541,-0.0534,-0.0553,-0.0461,-0.0454,-0.0547,-0.0546,-0.0547,-0.0547,-0.0547,-0.0547,-0.0547,0,-0.0369,-0.0373,-0.0392,-0.0395,-0.0395,-0.0415,-0.0416,-0.0431,-0.0444,-0.0439,-0.0466,-0.0456,-0.0499,-0.05,-0.0516,-0.0472,-0.0521,-0.0443,-0.0434,-0.0551,-0.0552,-0.0545,-0.0545,-0.0545,-0.0546,-0.0546,-0.0546,0,-0.0348,-0.0365,-0.0369,-0.0385,-0.0387,-0.0387,-0.0395,-0.0395,-0.0413,-0.0405,-0.0406,-0.0422,-0.0405,-0.0429,-0.0444,-0.0432,-0.0419,-0.0391,-0.0493,-0.0494,-0.0338,-0.034,-0.0275,-0.0271,-0.0268,-0.0265,-0.0263,0,-0.0333,-0.0337,-0.0351,-0.0349,-0.0355,-0.0358,-0.0357,-0.0377,-0.0374,-0.0374,-0.0362,-0.0343,-0.0345,-0.0294,-0.0325,-0.0313,-0.0314,-0.0306,-0.0333,-0.031,-0.0309,-0.0315,-0.0321,-0.0258,-0.0257,-0.0256,-0.0256,0,-0.0304,-0.0316,-0.0316,-0.0315,-0.0313,-0.0306,-0.0305,-0.0298,-0.0313,-0.0332,-0.0295,-0.027,-0.0232,-0.0232,-0.0213,-0.0218,-0.0316,-0.0273,-0.028,-0.0306,-0.0289,-0.0292,-0.0302,-0.0245,-0.0246,-0.0247,-0.0248,0,-0.0276,-0.0269,-0.0275,-0.0268,-0.0263,-0.0245,-0.0255,-0.0241,-0.0238,-0.0248,-0.0231,-0.0215,-0.0226,-0.0178,-0.0173,-0.015,-0.0144,-0.0156,-0.0169,-0.0181,-0.0166,-0.0132,-0.0014,0,0,0,0,0,-0.0244,-0.0232,-0.0225,-0.0209,-0.0202,-0.0198,-0.0211,-0.0227,-0.0244,-0.0203,-0.0216,-0.0177,-0.0127,-0.0126,-0.0079,-0.011,-0.0144,-0.0054,-0.0166,-0.0185,-0.0197,-0.0186,0,0,0,0,0,0,-0.0222,-0.0214,-0.021,-0.0158,-0.0133,-0.0118,-0.0125,-0.0143,-0.0129,-0.0151,-0.0132,-0.0139,-0.0104,-0.0138,-0.0064,-0.006,-0.012,-0.0046,-0.0045,-0.0178,-0.0189,-0.0199,-0.0192,0,0,0,0,0]},{"header":{"parameterUnit":"m.s-1","parameterCategory":2,"la1":30.2991,"la2":30.254,"lo1":-89.0895,"lo2":-89.0444,"dy":0.0017,"dx":0.0017,"nx":28,"ny":28,"refTime":"2026-02-03T03:00:00:Z","depth":"4","parameterNumber":3,"parameterNumberName":"V-component_of_CURRENTS"},"data":[0,0,0,0,0,0,0,0,0,0,0,0,0,0,0,0,0,0,0,0,0,0,0,0,0,0,0,0,0,0,0,0,0,0,0,0,0,0,0,0,0,0,0,0,0,0,0,0,0,0,0,0,0,0,0,0,0,0,-0.0263,-0.0263,0,-0.0286,-0.0286,-0.0287,-0.0304,-0.0304,-0.0304,-0.0304,-0.0278,-0.0277,-0.0277,0,0,0,0,0,0,0,0,0,0,0,0,0,-0.0243,-0.0243,-0.0263,-0.0263,-0.0263,-0.0286,-0.0286,-0.0287,-0.0304,-0.0304,-0.0304,-0.0304,-0.0278,-0.0278,-0.0277,0,0,0,0,0,0,0,0,0,0,0,0,0,-0.0259,-0.0243,-0.0263,-0.0273,-0.0274,-0.0286,-0.0286,-0.0287,-0.0304,-0.0304,-0.0304,-0.0304,-0.0279,-0.0278,-0.0277,-0.0271,0,0,-0.0274,-0.0273,0,0,0,0,0,0,0,0,-0.0258,-0.026,-0.0271,-0.0272,-0.0273,-0.029,-0.027,-0.0278,-0.0304,-0.0295,-0.0304,-0.0304,-0.0276,-0.0275,-0.0284,-0.027,-0.0269,-0.0273,-0.0273,-0.0272,-0.0272,0,0,0,0,0,0,0,-0.0257,-0.0259,-0.0274,-0.0271,-0.0273,-0.0279,-0.0282,-0.0272,-0.0286,-0.0296,-0.0297,-0.0296,-0.0277,-0.0285,-0.0283,-0.0268,-0.0273,-0.0273,-0.0272,-0.0272,-0.0275,-0.0275,0,0,0,0,0,0,-0.025,-0.0258,-0.0273,-0.0274,-0.0263,-0.0279,-0.0282,-0.0287,-0.0288,-0.0287,-0.0296,-0.0297,-0.0286,-0.0284,-0.0282,-0.0297,-0.0272,-0.0271,-0.0271,-0.0274,-0.0275,-0.0276,0,0,0,0,0,0,-0.0249,-0.0251,-0.0272,-0.0265,-0.0268,-0.0279,-0.0284,-0.0287,-0.0298,-0.0288,-0.0287,-0.0304,-0.0286,-0.0283,-0.0282,-0.0295,-0.0271,-0.027,-0.0273,-0.0274,-0.0275,-0.0312,0,0,0,0,0,0,-0.0249,-0.0251,-0.0259,-0.0265,-0.0268,-0.0278,-0.0284,-0.0287,-0.0296,-0.0297,-0.0294,-0.0292,-0.0286,-0.0284,-0.0281,-0.0293,-0.0269,-0.0272,-0.0274,-0.0275,-0.031,-0.0315,-0.0318,0,0,0,0,0,-0.0248,-0.0257,-0.0259,-0.0261,-0.0276,-0.0278,-0.028,-0.029,-0.0296,-0.03,-0.0305,-0.0292,-0.0291,-0.0284,-0.028,-0.0292,-0.0272,-0.0273,-0.0275,-0.0309,-0.0314,-0.0318,0,0,0,0,0,0,-0.0252,-0.0259,-0.0262,-0.0273,-0.0273,-0.028,-0.0287,-0.0292,-0.03,-0.0304,-0.0297,-0.0295,-0.0301,-0.029,-0.0283,-0.0298,-0.028,-0.0281,-0.0307,-0.0312,-0.0316,-0.032,-0.0268,0,0,0,0,0,-0.0255,-0.0265,-0.0266,-0.0275,-0.0275,-0.0282,-0.0287,-0.0291,-0.0295,-0.03,-0.0299,-0.03,-0.0305,-0.0303,-0.0301,-0.0304,-0.0283,-0.0311,-0.0315,-0.0318,-0.032,-0.0308,-0.031,-0.0281,-0.0281,-0.0281,0,0,-0.026,-0.0264,-0.0271,-0.0276,-0.028,-0.0288,-0.0286,-0.0292,-0.0304,-0.0294,-0.0312,-0.0311,-0.0309,-0.032,-0.0321,-0.0311,-0.0313,-0.032,-0.0323,-0.0323,-0.0309,-0.0312,-0.0315,-0.0282,-0.0282,-0.0281,0,0,-0.0267,-0.0276,-0.0283,-0.0287,-0.029,-0.0295,-0.0296,-0.0302,-0.0312,-0.0324,-0.0326,-0.0336,-0.0336,-0.0344,-0.0347,-0.0369,-0.0335,-0.0366,-0.0388,-0.0376,-0.0378,-0.0379,-0.0343,-0.0341,-0.0367,-0.0367,-0.0367,0,-0.0269,-0.0285,-0.0285,-0.0291,-0.03,-0.0298,-0.0309,-0.0318,-0.0326,-0.0336,-0.0333,-0.0356,-0.0352,-0.0373,-0.0385,-0.0379,-0.0354,-0.037,-0.038,-0.0382,-0.0383,-0.0345,-0.0342,-0.0369,-0.0369,-0.0369,-0.0369,0,-0.0281,-0.0296,-0.03,-0.0313,-0.032,-0.0328,-0.0335,-0.0347,-0.0358,-0.0369,-0.0389,-0.0391,-0.0404,-0.0408,-0.0405,-0.0416,-0.0389,-0.0387,-0.0367,-0.0388,-0.0346,-0.0343,-0.0372,-0.0371,-0.0371,-0.037,0,0,-0.028,-0.0304,-0.0308,-0.0322,-0.0334,-0.0341,-0.0362,-0.0381,-0.0402,-0.0411,-0.0435,-0.0453,-0.0451,-0.0454,-0.0449,-0.0443,-0.0429,-0.0419,-0.0417,-0.038,-0.0378,-0.0377,-0.0373,-0.0424,-0.0424,-0.0424,-0.034,0,-0.029,-0.0313,-0.0323,-0.0352,-0.0365,-0.0376,-0.0397,-0.0415,-0.0431,-0.0451,-0.0458,-0.0476,-0.0468,-0.0475,-0.0469,-0.0443,-0.0424,-0.045,-0.0365,-0.0362,-0.0358,-0.0371,-0.0424,-0.0338,-0.0337,-0.0336,-0.0336,0,-0.03,-0.0316,-0.0345,-0.0379,-0.0386,-0.0405,-0.0442,-0.0459,-0.0483,-0.0494,-0.0509,-0.0508,-0.051,-0.0497,-0.0455,-0.0468,-0.0425,-0.0399,-0.0395,-0.0381,-0.0357,-0.0316,-0.0329,-0.033,-0.033,-0.0331,-0.0331,0,-0.0302,-0.0334,-0.0362,-0.0373,-0.0407,-0.0428,-0.0448,-0.0477,-0.0495,-0.0519,-0.053,-0.0529,-0.0527,-0.0486,-0.0439,-0.044,-0.0379,-0.0373,-0.0325,-0.0322,-0.033,-0.0329,-0.0333,-0.0333,-0.0333,-0.0333,-0.0334,0,-0.0311,-0.0334,-0.0369,-0.0385,-0.0422,-0.044,-0.048,-0.05,-0.0524,-0.0542,-0.0549,-0.0554,-0.0525,-0.049,-0.0438,-0.0373,-0.0374,-0.0328,-0.0309,-0.0345,-0.0347,-0.0326,-0.0326,-0.033,-0.0331,-0.0331,-0.0332,0,-0.031,-0.0333,-0.0366,-0.0409,-0.0426,-0.0452,-0.0495,-0.0519,-0.054,-0.0559,-0.0565,-0.0565,-0.0525,-0.0481,-0.0412,-0.0373,-0.0311,-0.0282,-0.031,-0.0294,-0.0254,-0.0257,-0.0216,-0.0215,-0.0214,-0.0214,-0.0214,0,-0.0309,-0.0327,-0.0381,-0.0404,-0.0428,-0.0468,-0.0494,-0.0525,-0.0542,-0.0561,-0.0564,-0.0545,-0.0534,-0.0427,-0.0391,-0.0293,-0.0282,-0.0238,-0.0264,-0.026,-0.0245,-0.0249,-0.0253,-0.0213,-0.0213,-0.0213,-0.0213,0,-0.0307,-0.033,-0.0359,-0.0405,-0.0441,-0.0481,-0.0516,-0.0525,-0.055,-0.0567,-0.0547,-0.0514,-0.0471,-0.0414,-0.0347,-0.0279,-0.0268,-0.0233,-0.0234,-0.0257,-0.0257,-0.0243,-0.0247,-0.0211,-0.0211,-0.0211,-0.0212,0,-0.0303,-0.0322,-0.0361,-0.0401,-0.0446,-0.0481,-0.0503,-0.0514,-0.0528,-0.0537,-0.0526,-0.0494,-0.048,-0.0406,-0.0342,-0.0285,-0.0268,-0.024,-0.0239,-0.0241,-0.0289,-0.0294,-0.0244,0,0,0,0,0,-0.0296,-0.0315,-0.0352,-0.0398,-0.0443,-0.0469,-0.0511,-0.0527,-0.0543,-0.0518,-0.0519,-0.0475,-0.0402,-0.0384,-0.0322,-0.034,-0.0266,-0.0266,-0.0235,-0.0202,-0.0204,-0.0259,0,0,0,0,0,0,-0.0291,-0.0321,-0.0343,-0.0386,-0.0415,-0.0462,-0.0489,-0.0504,-0.0488,-0.0494,-0.0455,-0.0446,-0.0379,-0.0426,-0.0314,-0.0303,-0.0271,-0.024,-0.0238,-0.0201,-0.0203,-0.0204,-0.0261,0,0,0,0,0]}]]